Lexington Weather

Lexington, Massachusetts, USA

44°F
11/27/2020 4:17am 
  • Lexington Conditions: Mist, Overcast
  • Temperature: 43.5°F / 6.4°CWarmer 3.0°F than last hour.
  • Dew Point: 43.0°FIncreased 3.3°Fsince last hour.
  • Relative Humidity: 98%Increased 1.0% since last hour.
  • Wind: Calm, 10-min avg: Calm, gust: None
  • Barometer: 29.97 in Steady
  • Visibility: ¾ mile
  • Rain Today: 0.00 in
  •   
Southeast Middlesex County - Special Weather Statement
 - SEE ALL NEARBY ALERTS -

Regional Weather Roundup
for Boston / Norton, MA

        
000
ASUS41 KBOX 261304
RWRBOX

REGIONAL WEATHER ROUNDUP
NATIONAL WEATHER SERVICE BOSTON/NORTON MA
800 AM EST THU NOV 26 2020

NOTE:  "FAIR" INDICATES FEW OR NO CLOUDS BELOW 12,000 FEET WITH NO 
SIGNIFICANT WEATHER AND/OR OBSTRUCTIONS TO VISIBILITY.

MAZALL-261400-
EASTERN MASSACHUSETTS
  
CITY           SKY/WX    TMP DP  RH WIND       PRES   REMARKS
BOSTON         LGT RAIN  49  49 100 CALM      30.11F                  
BEVERLY        LGT RAIN  52  50  93 SE10      30.10S FOG              
LAWRENCE       LGT RAIN  41  41 100 CALM      30.13R VSB 1/2          
BEDFORD        LGT RAIN  40  38  93 W5        30.11R FOG              
BLUE HILL        N/A     53  53 100 S18G29    30.08F                  
NORWOOD        CLOUDY    55  52  89 S3        30.10F                  
MARSHFIELD     CLOUDY    54  54 100 S5        30.12S                  
PLYMOUTH       LGT RAIN  56  54  93 S8        30.12F                  
TAUNTON        LGT RAIN  57  54  89 VRB5      30.11F                  
NEW BEDFORD    CLOUDY    59  56  89 S14       30.11F                  
$$

MAZALL-261400-
CAPE COD AND THE ISLANDS
  
CITY           SKY/WX    TMP DP  RH WIND       PRES   REMARKS
FALMOUTH       DRIZZLE   55  55 100 S9        30.14F                  
HYANNIS        CLOUDY    55  53  93 S5        30.14F                  
CHATHAM        CLOUDY    55  52  89 S8        30.17F                  
PROVINCETOWN   LGT RAIN  55  53  93 S9        30.15F                  
NANTUCKET      CLOUDY    57  54  89 S12       30.16F                  
MARTHAS VNYRD  CLOUDY    59  56  89 S15       30.14F                  
$$
 
MAZALL-261400-
CENTRAL AND WESTERN MASSACHUSETTS
  
CITY           SKY/WX    TMP DP  RH WIND       PRES   REMARKS
WORCESTER      RAIN      52  51  97 S10       30.08F FOG              
FITCHBURG      RAIN      36  35  96 CALM      30.11F FOG              
ORANGE         RAIN      44  43  96 CALM      30.06F FOG              
SPRINGFIELD    LGT RAIN  44  44 100 CALM      30.04F                  
WESTFIELD      LGT RAIN  41  40  96 N6        30.05F                  
NORTH ADAMS    CLOUDY    48  45  89 E10       30.02F                  
PITTSFIELD     CLOUDY    44  44 100 CALM      30.01F FOG              
$$
 
RIZALL-261400-
RHODE ISLAND
  
CITY           SKY/WX    TMP DP  RH WIND       PRES   REMARKS
PROVIDENCE     LGT RAIN  54  53  97 S5        30.10F                  
NEWPORT        CLOUDY    58  56  93 S13       30.11F FOG              
BLOCK ISLAND   CLOUDY    59  56  89 S17G24    30.10F                  
SMITHFIELD     LGT RAIN  54  54 100 VRB5      30.10S                  
WESTERLY       LGT RAIN  58  55  90 S10       30.10F                  
$$
 
CTZALL-261400-
CONNECTICUT
  
CITY           SKY/WX    TMP DP  RH WIND       PRES   REMARKS
BRADLEY INTL   LGT RAIN  43  42  97 NW6       30.05S FOG              
HARTFORD       RAIN      58  55  90 S14G22    30.04F FOG              
BRIDGEPORT     HVY RAIN  58  55  90 SW13      30.05F FOG              
DANBURY        CLOUDY    58  56  93 S8G20     30.03F                  
GROTON         LGT RAIN  57  56  96 S8        30.10R FOG              
NEW HAVEN      HVY RAIN  58  58 100 W7        30.06F VSB 3/4          
CHESTER        HVY RAIN  57  57 100 S8        30.09S                  
MERIDEN        RAIN      58  55  90 S12G21    30.05F FOG              
WILLIMANTIC    RAIN      56  55  97 S6        30.09R FOG              
OXFORD         LGT RAIN  56  56 100 S12G22    30.05S                  
$$

MEZ002-015-021-024-NHZ003-005-008-011-012-014-VTZ005-008-261400-
NORTHERN NEW ENGLAND
  
CITY           SKY/WX    TMP DP  RH WIND       PRES   REMARKS
PORTLAND ME    LGT RAIN  35  35 100 NE6       30.15F FOG     WCI  30  
BANGOR ME      FRZ RAIN  32  31  96 CALM      30.22R FOG              
CONCORD NH     RAIN      34  32  92 NW3       30.12F FOG              
MANCHESTER NH  LGT RAIN  37  35  92 N5        30.11R FOG              
NASHUA NH      RAIN      36  36 100 CALM      30.12S FOG              
PORTSMOUTH NH  LGT RAIN  42  41  99 NW3       30.10F VSB 3/4          
JAFFREY NH     RAIN      37  35  92 CALM      30.07F FOG              
KEENE NH       LGT RAIN  37  37 100 CALM      30.07F FOG              
BURLINGTON VT  LGT RAIN  42  39  89 SE5       29.98F                  
MT. WASHINGTON FOG       32  32 100 SW37G48     N/A  VSB 1/16WCI  16  
$$

NYZ052-076-261400-
EASTERN NEW YORK
  
CITY           SKY/WX    TMP DP  RH WIND       PRES   REMARKS
ALBANY         FOG       45  45 100 S7        29.99F VSB 1            
NEW YORK CITY  CLOUDY    59  55  87 S9        30.01F                  
$$
 
ANZALL-261400-
MARINE OBSERVATIONS
  
STATION/POSITION TIME  TEMP    WIND        PRES    VSBY  WAVE
                       AIR SEA DIR/SP/G                  HT/PER
                 (UTC) (F)     (DEG/KT/KT) (MB)    (MI)  (FT/S)
BOSTON BUOY      1250   52 50  140/ 14/ 17 1020.0F         2/11
BUZZARDS BAY     1200          180/ 18/ 19 1020.6F
NANTUCKET SOUND  1250      51  170/ 14/ 16   N/A           1/ 5
MASS BAY-STELLWA NOT AVBL
ISLE OF SHOALS   1200   49     120/ 14/ 15 1019.4F
S OF BLOCK IS    1226      57                N/A           4/ 6
$$

......................KEY.........................
  SKY/WX - SKY CONDITION/PRESENT WEATHER
  TMP    - TEMPERATURE IN FAHRENHEIT
  DWPT   - DEWPOINT IN FAHRENHEIT
  RH     - RELATIVE HUMIDITY IN PERCENT
  WIND   - DIRECTION AND SPEED IN MPH
  PRES   - MEAN SEA LEVEL PRESSURE IN INCHES OF HG
  WCI    - WIND CHILL INDEX
  VSB    - VISIBILITY IN MILES
  HX     - HEAT INDEX
  TC     - TEMPERATURE IN CELSIUS
  VRB    - VARIABLE WIND DIRECTION
  N/A    - NOT AVAILABLE
  
      

Other recent Regional Weather Roundups

Fri Nov 27, 1:04am

Fri Nov 27, 12:04am

Thu Nov 26, 11:04pm

Thu Nov 26, 10:04pm

Thu Nov 26, 9:04pm

Thu Nov 26, 8:04pm

Thu Nov 26, 7:04pm

Thu Nov 26, 6:04pm

Thu Nov 26, 5:04pm

Thu Nov 26, 4:04pm

Thu Nov 26, 2:04pm

Thu Nov 26, 1:04pm

Thu Nov 26, 12:04pm

Thu Nov 26, 11:04am

Thu Nov 26, 10:04am

Thu Nov 26, 9:04am

Thu Nov 26, 7:04am

Thu Nov 26, 6:04am

Thu Nov 26, 5:04am

Thu Nov 26, 4:04am

Thu Nov 26, 3:04am

Thu Nov 26, 2:04am

Thu Nov 26, 1:04am

Thu Nov 26, 12:04am

Wed Nov 25, 11:04pm

Wed Nov 25, 10:04pm

Wed Nov 25, 9:04pm

Wed Nov 25, 8:04pm

Wed Nov 25, 7:04pm

Wed Nov 25, 6:04pm

Wed Nov 25, 5:04pm

Wed Nov 25, 4:04pm

Wed Nov 25, 3:05pm

Wed Nov 25, 2:04pm

Wed Nov 25, 1:04pm

Wed Nov 25, 12:05pm

Wed Nov 25, 11:04am

Wed Nov 25, 10:04am

Wed Nov 25, 9:04am

Wed Nov 25, 8:04am

Wed Nov 25, 7:04am

Wed Nov 25, 6:04am

Wed Nov 25, 5:04am

Wed Nov 25, 4:04am

Wed Nov 25, 3:04am

Wed Nov 25, 2:04am

Wed Nov 25, 1:04am

Wed Nov 25, 12:04am

Tue Nov 24, 11:04pm

Tue Nov 24, 10:04pm

Tue Nov 24, 9:04pm

Tue Nov 24, 8:04pm

Tue Nov 24, 7:04pm

Tue Nov 24, 6:04pm

Tue Nov 24, 5:04pm

Tue Nov 24, 4:05pm

Tue Nov 24, 3:05pm

Tue Nov 24, 2:05pm

Tue Nov 24, 1:05pm

Tue Nov 24, 12:04pm

Tue Nov 24, 11:04am

Tue Nov 24, 10:04am

Tue Nov 24, 9:04am

Tue Nov 24, 8:04am

Tue Nov 24, 7:04am

Tue Nov 24, 6:04am

Tue Nov 24, 5:04am

Tue Nov 24, 4:05am

Tue Nov 24, 3:04am

Tue Nov 24, 2:04am

Tue Nov 24, 1:04am

Tue Nov 24, 12:05am

Mon Nov 23, 11:04pm

Mon Nov 23, 10:04pm

Mon Nov 23, 9:04pm

Mon Nov 23, 8:04pm

Mon Nov 23, 7:04pm

Mon Nov 23, 6:04pm

Mon Nov 23, 5:04pm

Mon Nov 23, 4:04pm

Mon Nov 23, 3:04pm

Mon Nov 23, 2:04pm

Mon Nov 23, 1:04pm

Mon Nov 23, 12:04pm

Mon Nov 23, 11:04am

Mon Nov 23, 10:04am

Mon Nov 23, 9:04am

Mon Nov 23, 8:05am

Mon Nov 23, 7:04am

Mon Nov 23, 6:04am

Mon Nov 23, 5:04am

Mon Nov 23, 4:04am

Mon Nov 23, 3:04am

Mon Nov 23, 2:04am

Mon Nov 23, 1:04am

Mon Nov 23, 12:05am

Sun Nov 22, 11:04pm

Sun Nov 22, 10:04pm

Sun Nov 22, 9:04pm

Sun Nov 22, 8:05pm

Sun Nov 22, 7:04pm

Sun Nov 22, 6:04pm

Sun Nov 22, 5:04pm

Sun Nov 22, 4:04pm

Sun Nov 22, 3:04pm

Sun Nov 22, 2:04pm

Sun Nov 22, 1:05pm

Sun Nov 22, 12:04pm

Sun Nov 22, 11:04am

Sun Nov 22, 10:05am

Sun Nov 22, 9:04am

Sun Nov 22, 8:04am

Sun Nov 22, 7:04am

Sun Nov 22, 6:04am

Sun Nov 22, 5:04am

Sun Nov 22, 4:04am

Sun Nov 22, 3:04am

Sun Nov 22, 2:04am

Sun Nov 22, 1:04am

Sun Nov 22, 12:04am

Sat Nov 21, 11:04pm

Sat Nov 21, 10:04pm

Sat Nov 21, 9:04pm

Sat Nov 21, 8:05pm

Sat Nov 21, 7:04pm

Sat Nov 21, 6:04pm

Sat Nov 21, 5:04pm

Sat Nov 21, 4:05pm

Sat Nov 21, 3:04pm

Sat Nov 21, 2:04pm

Sat Nov 21, 1:05pm

Sat Nov 21, 12:04pm

Sat Nov 21, 11:04am

Sat Nov 21, 10:04am

Sat Nov 21, 9:04am

Sat Nov 21, 8:04am

Sat Nov 21, 7:04am

Sat Nov 21, 6:04am

Sat Nov 21, 5:04am

Sat Nov 21, 4:04am

Sat Nov 21, 3:04am

Sat Nov 21, 2:04am

Sat Nov 21, 1:04am

Sat Nov 21, 12:04am

Fri Nov 20, 11:04pm

Fri Nov 20, 10:04pm

Fri Nov 20, 9:04pm

Fri Nov 20, 8:04pm

Fri Nov 20, 7:04pm

Fri Nov 20, 6:04pm

Fri Nov 20, 5:04pm

Fri Nov 20, 4:05pm

Fri Nov 20, 3:05pm

Fri Nov 20, 2:04pm

Fri Nov 20, 1:04pm

Fri Nov 20, 12:04pm

Fri Nov 20, 11:04am

Fri Nov 20, 10:04am

Fri Nov 20, 9:04am

Fri Nov 20, 8:04am

Fri Nov 20, 7:04am

Fri Nov 20, 6:04am

Fri Nov 20, 5:04am

Fri Nov 20, 4:04am

Meta data:

ID: 2fc79507-dc17-4d11-a18c-8083adf4ea90
Link: https://api.weather.gov/products/2fc79507-dc17-4d11-a18c-8083adf4ea90